Home   Weather   19°41'N, 99°11'W   Past weeks
Flag for Mexico

Past Weather in 19°41'N, 99°11'W, Mexico — Yesterday and Last 2 Weeks

Now
57 °F

Sunny.


Feels Like: 57 °F
Forecast: 75 / 49 °F
Wind: 3 mph from South

Location: Mexico City / Licenci

Current Time: Mar 23, 2019 at 8:47:09 am

Latest Report: Mar 23, 2019 at 7:47 am


Visibility: 10 mi

Pressure: 30.37 "Hg

Humidity: 55%

Dew Point: 41 °F

Location of 19°41'N, 99°11'WLocation

Past Weather in 19°41'N, 99°11'W — Graph

°F

19°41'N, 99°11'W Temperature Yesterday

Maximum temperature yesterday: 75 °F (at 1:44 pm)
Minimum temperature yesterday: 48 °F (at 6:45 am)
Average temperature yesterday: 62 °F

High & Low Weather Summary for the Past Weeks

 TemperatureHumidityPressure
High86 °F (Mar 12, 3:45 pm)88% (Mar 22, 5:42 am)30.41 "Hg (Mar 22, 5:42 am)
Low46 °F (Mar 19, 6:45 am)6% (Mar 12, 3:45 pm)29.54 "Hg (Mar 13, 2:48 pm)
Average66 °F42%30.14 "Hg
* Reported Mar 8 6:45 am — Mar 23 6:50 am, 19°41'N, 99°11'W. Weather by CustomWeather, © 2019

Note: Actual official high and low records may vary slightly from our data, if they occured in-between our weather recording intervals... More about our weather records

Advertising

19°41'N, 99°11'W Weather History for the Previous 24 Hours

Scroll right to see more
 ConditionsComfort  
Time TempWeatherWind HumidityBarometerVisibility
6:50 am
Sat, Mar 23
52 °FSunny.3 mph62%30.36 "Hg12 mi
5:46 am50 °FClear.7 mph71%29.94 "Hg10 mi
4:46 am52 °FClear.6 mph72%30.32 "Hg12 mi
3:45 am54 °FPassing clouds.5 mph67%30.32 "Hg12 mi
2:45 am55 °FPassing clouds.5 mph59%29.84 "Hg12 mi
1:40 am57 °FPassing clouds.3 mph55%30.34 "Hg10 mi
12:40 am57 °FPassing clouds.7 mph59%30.35 "Hg10 mi
12:05 am57 °FPassing clouds.8 mph59%30.35 "Hg10 mi
11:45 pm
Fri, Mar 22
61 °FPassing clouds.5 mph52%29.86 "Hg10 mi
10:41 pm63 °FPassing clouds.6 mph45%30.33 "Hg12 mi
9:45 pm63 °FPassing clouds.No wind42%30.31 "Hg12 mi
8:47 pm61 °FPassing clouds.9 mph48%29.88 "Hg10 mi
8:26 pm61 °FPassing clouds.12 mph45%30.28 "Hg10 mi
8:11 pm64 °FPassing clouds.10 mph40%30.27 "Hg10 mi
6:45 pm66 °FScattered clouds.14 mph35%30.23 "Hg8 mi
5:52 pm68 °FBroken clouds.14 mph35%29.80 "Hg8 mi
4:46 pm70 °FBroken clouds.15 mph33%30.21 "Hg8 mi
4:38 pm66 °FLight rain. Broken clouds.14 mph37%30.21 "Hg8 mi
3:54 pm68 °FThunderstorms. Mostly cloudy.14 mph40%30.22 "Hg8 mi
3:16 pm72 °FPartly sunny.6 mph25%30.21 "Hg8 mi
2:48 pm75 °FPartly sunny.12 mph22%29.93 "Hg8 mi
1:44 pm75 °FPartly sunny.15 mph22%30.26 "Hg8 mi
12:47 pm72 °FScattered clouds.3 mph27%30.30 "Hg8 mi
12:14 pm73 °FScattered clouds.5 mph27%30.32 "Hg8 mi
11:42 am70 °FPassing clouds.6 mph33%29.84 "Hg8 mi
10:47 am68 °FSunny.3 mph35%30.36 "Hg6 mi
10:27 am66 °FSunny.5 mph43%30.36 "Hg6 mi
9:53 am63 °FSunny.8 mph52%30.37 "Hg6 mi
9:22 am61 °FSunny.5 mph55%30.38 "Hg6 mi
8:49 am57 °FSunny.3 mph67%29.98 "Hg6 mi
8:23 am55 °FSunny.5 mph72%30.38 "Hg6 mi
Weather by CustomWeather, © 2019

See weather overview